Wind_Speed
21 23 27 27 27 22 18 23 22 26 26 27 26 24 22 22 20 20 22 21 21 21 19 19 20 20 19 19 19 19 19 19 19 19 19 20 20 21 21 21 21 21 22
19 22 25 25 20 21 26 21 19 25 26 25 25 21 19 18 17 19 22 22 23 21 20 19 20 19 18 18 18 19 18 18 19 19 20 20 20 21 21 20 21 21 21
17 21 25 22 24 25 25 24 24 25 26 28 24 19 20 20 18 17 17 18 20 19 19 20 20 18 18 18 18 18 17 17 18 19 19 19 19 20 20 20 21 21 20
18 24 26 29 24 28 28 26 25 23 22 22 22 18 16 15 14 12 13 15 15 15 16 18 19 20 19 18 18 17 17 17 18 18 18 19 19 20 19 20 21 20 21
19 23 25 24 24 28 25 25 24 26 26 23 23 20 21 19 20 18 16 14 13 14 13 15 16 19 19 18 17 17 17 17 17 17 18 18 18 19 18 19 20 20 20
18 20 25 27 26 29 29 26 28 26 27 26 24 21 15 15 15 11 12 13 13 14 14 12 11 16 18 18 17 17 16 17 17 17 17 18 18 18 18 18 18 20 21
15 25 26 27 31 25 29 29 30 29 27 26 23 17 14 12 14 13 11 13 11 11 13 14 7 9 15 16 17 16 16 15 16 17 17 17 18 18 18 18 20 20 20
17 30 28 29 30 25 27 30 31 28 30 25 21 21 3 8 8 15 14 11 11 9 9 11 6 7 12 15 14 15 15 15 16 16 16 17 17 17 17 18 19 19 19
21 27 26 26 29 30 33 32 31 30 30 19 28 6 3 3 9 11 12 13 13 10 9 9 7 6 9 13 13 15 16 15 15 15 15 16 16 17 18 19 19 18 19
21 21 23 21 31 33 34 31 29 26 26 24 22 14 3 15 3 3 11 13 10 12 11 9 6 4 8 12 12 12 13 14 14 14 15 15 16 17 17 18 18 19 19
18 24 22 24 31 31 29 30 26 23 24 20 14 9 8 19 11 8 3 9 11 11 8 8 4 4 6 10 10 11 10 13 13 13 14 16 16 16 17 18 17 18 19
24 22 25 26 26 25 27 28 25 22 20 17 14 13 8 6 8 6 4 17 18 15 12 9 6 4 4 7 10 12 10 9 12 12 14 14 15 16 16 16 17 18 18
27 23 27 26 25 21 23 26 26 22 21 17 13 13 11 8 6 7 19 17 8 19 7 9 6 5 3 5 8 11 12 9 10 10 12 12 13 14 14 14 15 16 17
30 26 26 24 22 21 23 25 25 22 15 13 12 10 9 8 7 9 21 24 6 4 10 8 11 6 2 2 4 7 11 10 9 9 9 10 11 12 13 14 15 16 17
30 29 27 27 22 26 27 26 25 22 19 14 13 12 11 10 10 10 23 30 16 3 3 10 7 9 4 1 2 4 5 8 9 8 10 11 10 11 12 13 14 15 16
30 29 28 28 25 27 26 27 24 21 22 19 17 15 13 12 12 11 13 12 10 12 4 11 10 15 8 5 4 1 1 4 9 8 9 12 13 10 12 13 14 14 14
28 28 28 28 28 27 26 25 25 22 23 21 18 17 14 13 13 12 12 10 9 15 13 14 18 14 11 8 8 7 7 1 5 9 9 11 13 14 14 14 13 13 14
29 29 29 27 26 26 26 26 26 25 23 22 22 20 17 16 15 13 12 11 9 11 18 22 17 15 11 9 8 7 8 7 2 3 5 8 8 9 11 13 16 13 12
29 29 28 28 28 27 27 24 24 24 24 24 24 21 20 19 17 15 12 12 11 15 10 17 14 17 11 9 10 8 7 7 6 3 2 3 4 5 6 8 12 14 11
31 30 29 29 28 28 26 25 25 25 24 23 22 22 21 19 18 16 15 14 15 16 18 18 19 17 10 9 11 12 12 11 11 8 4 7 7 6 5 5 8 12 13
32 32 31 29 28 29 28 28 28 27 26 24 22 22 20 19 18 16 16 15 16 17 19 18 15 13 11 10 13 9 9 7 9 6 5 6 11 11 9 6 6 10 14
34 33 33 32 32 31 29 28 29 28 27 27 27 25 22 20 19 18 15 15 15 17 17 17 16 17 14 13 13 12 9 8 5 10 9 5 3 10 8 10 7 10 13
35 35 34 34 34 32 30 30 29 29 29 30 28 26 24 22 20 19 18 17 16 15 15 15 16 14 16 15 12 12 10 10 8 7 7 7 5 10 8 7 10 9 11
39 38 36 35 34 31 29 31 30 29 29 28 28 26 25 25 24 21 20 18 17 16 16 15 13 13 12 13 13 12 12 9 7 8 7 6 12 12 13 13 9 9 9
39 39 37 35 35 33 31 32 31 29 29 27 26 24 23 24 24 23 21 20 18 18 17 14 12 12 12 13 13 13 14 13 11 9 9 8 9 11 13 12 17 11 8
36 37 36 36 35 34 32 35 33 31 31 28 26 24 22 23 22 23 23 22 21 20 18 17 15 13 13 13 14 14 13 15 11 6 12 6 7 5 4 3 4 8 11
Wind_Direction
152 154 153 149 143 137 128 131 124 111 126 132 126 122 115 117 107 90 86 84 83 78 74 71 69 67 63 60 59 59 57 52 52 48 48 42 38 38 38 37 36 34 30
157 162 158 156 146 147 141 138 130 118 114 122 119 110 102 114 111 102 93 83 76 80 75 71 69 67 64 59 58 57 55 49 50 49 43 39 39 39 38 37 37 33 33
153 159 159 159 149 146 138 135 127 127 120 118 111 102 106 113 116 103 90 83 76 75 78 71 67 67 65 60 57 55 53 54 49 49 43 42 41 40 40 36 35 33 30
149 149 153 156 156 148 144 136 136 135 127 115 113 115 122 123 114 110 92 80 71 74 75 71 70 66 67 61 57 54 53 56 55 47 45 43 43 41 39 38 36 33 28
157 158 160 164 160 149 148 143 139 131 127 126 123 123 116 112 116 112 99 89 82 70 76 76 70 64 63 64 58 54 53 57 50 47 46 45 43 40 42 41 35 30 30
166 167 162 160 160 153 153 147 142 140 138 136 131 125 123 114 120 112 100 104 92 83 75 65 54 65 52 62 60 54 55 56 48 47 47 46 44 43 40 43 33 32 29
163 174 162 159 157 159 157 153 150 147 144 143 129 128 124 134 142 134 118 129 115 95 79 73 77 55 40 44 61 61 53 55 51 49 47 48 45 43 37 38 37 32 28
158 169 163 165 163 166 167 160 158 152 150 158 147 130 84 109 115 144 128 135 123 104 79 85 83 52 37 36 53 66 59 57 52 50 48 48 44 41 40 39 36 33 30
165 169 167 168 171 169 164 161 164 161 158 168 159 137 121 167 138 139 145 133 132 114 103 95 82 66 37 39 54 73 66 61 55 52 51 49 46 44 43 41 38 33 29
170 171 177 180 179 171 167 172 176 178 174 178 195 247 152 147 149 118 152 146 156 124 124 99 101 82 38 38 56 75 73 72 60 56 53 51 49 45 42 41 38 34 30
170 171 179 174 169 171 174 174 175 182 177 187 199 191 166 167 167 145 168 164 156 152 144 127 127 100 63 42 61 73 79 82 71 62 56 54 49 45 44 42 37 34 32
168 171 170 171 172 175 180 178 179 179 183 190 186 196 193 179 160 160 118 159 160 157 142 144 152 150 78 44 66 68 78 75 78 70 60 55 51 48 44 41 37 35 32
173 166 165 166 173 179 185 182 184 186 195 204 195 195 158 146 139 135 144 156 153 149 149 141 167 167 102 52 78 68 67 68 71 71 68 61 54 50 47 44 41 37 33
173 172 173 171 178 185 182 184 190 193 189 181 180 162 172 173 180 137 160 157 156 157 165 154 164 198 187 69 92 85 64 55 65 61 56 57 58 55 49 44 40 37 33
177 175 175 177 171 181 182 188 193 196 200 190 190 174 192 186 178 144 167 172 158 145 168 172 154 191 197 132 132 119 59 51 55 57 48 44 48 53 48 42 38 36 34
181 181 183 185 181 175 182 185 189 192 194 193 194 185 184 188 188 173 158 166 167 166 141 158 177 177 180 158 183 170 165 49 48 52 52 50 50 48 43 39 36 35 34
181 183 182 186 190 190 189 186 189 189 190 185 188 189 187 181 172 172 174 175 174 168 137 129 154 164 161 169 185 214 219 189 50 53 62 57 54 52 50 39 31 31 32
181 183 184 188 187 187 188 188 190 194 195 187 176 177 174 172 171 175 176 164 147 164 154 151 159 167 180 203 204 213 210 212 198 59 64 43 41 40 43 35 30 22 24
181 183 184 184 184 185 186 189 193 189 186 181 181 181 171 176 172 173 172 163 141 158 168 160 159 172 173 176 178 216 230 233 227 242 285 322 349 5 19 22 21 18 11
182 182 184 185 185 185 186 184 185 185 183 183 182 181 181 185 181 175 168 163 155 152 159 157 161 172 186 195 204 217 211 219 220 221 262 288 280 280 302 338 359 8 5
184 183 182 185 186 187 187 185 187 186 183 181 179 181 181 183 184 181 178 174 168 163 164 170 172 180 185 180 197 195 198 199 196 223 265 272 275 258 259 278 325 351 353
184 185 186 186 188 190 191 189 191 186 186 181 180 184 183 190 187 184 184 184 182 174 180 186 183 195 201 202 193 207 215 213 226 233 271 222 266 239 263 266 279 316 334
186 188 188 190 192 193 192 191 195 191 191 189 189 187 183 189 193 187 187 193 191 193 197 198 195 200 196 205 214 202 208 214 226 208 232 253 208 208 235 237 256 301 322
189 189 192 193 194 194 194 194 194 195 198 197 200 197 198 196 196 197 193 196 197 198 203 209 205 206 211 209 217 228 221 214 213 213 240 255 243 250 252 258 244 262 298
190 193 195 194 197 196 198 197 195 195 200 200 202 202 209 206 203 202 201 198 197 200 200 208 212 213 217 220 230 217 207 207 224 234 241 265 255 278 272 270 237 244 271
190 195 197 198 202 201 198 198 199 197 198 199 203 207 213 208 205 207 202 198 198 200 203 208 213 213 220 226 227 229 225 222 209 230 227 227 235 266 293 265 215 244 265
Height
860 864 867 870 874 876 879 881 883 884 885 886 889 891 894 896 899 900 900 901 901 901 902 902 900 898 899 898 897 896 895 894 893 892 890 888 887 885 883 881 879 876 875
859 863 868 872 875 877 879 881 884 886 888 889 892 895 896 898 901 902 902 904 903 903 904 904 902 901 902 901 899 898 898 897 896 894 893 891 889 887 885 883 881 879 877
860 863 868 871 875 878 879 881 884 887 889 892 894 897 899 901 903 904 905 906 906 905 906 905 904 904 904 903 902 901 901 899 898 896 895 893 891 889 888 885 884 882 880
859 862 867 871 875 878 880 882 884 888 891 894 897 899 900 903 904 906 907 908 908 908 908 907 907 906 906 905 904 904 903 901 900 899 897 895 893 892 890 888 887 884 882
859 861 866 871 874 878 880 884 886 887 891 896 898 901 902 905 906 907 909 909 910 909 909 910 909 908 907 907 906 906 905 904 902 901 899 897 896 894 892 890 889 886 884
858 861 864 868 873 877 880 884 886 889 892 895 899 902 904 907 909 910 911 912 912 912 912 911 910 910 909 908 908 908 907 906 905 903 901 900 898 896 895 893 891 888 886
857 859 864 867 871 875 879 883 887 888 892 896 898 903 905 908 910 911 912 913 913 913 913 913 912 911 910 909 909 910 909 908 907 905 904 902 900 899 897 895 893 891 888
856 858 862 866 870 875 878 882 885 887 892 896 898 900 906 910 911 913 913 914 915 915 915 915 914 913 912 910 909 909 910 910 908 907 906 904 903 901 899 897 895 892 890
855 858 861 865 868 872 877 880 883 886 889 894 895 895 904 908 910 914 914 914 916 915 916 916 915 914 913 912 911 910 911 911 910 909 908 906 905 903 900 899 897 894 892
854 857 861 862 866 870 875 879 881 884 886 891 895 894 894 895 905 914 915 915 916 916 916 917 915 915 914 913 912 911 911 912 912 911 909 908 906 904 902 900 898 896 894
853 856 858 861 864 869 873 877 880 884 886 889 892 893 893 894 896 901 911 913 916 917 917 916 915 914 915 914 914 913 912 912 912 912 911 909 908 906 904 902 900 898 896
851 855 857 860 864 869 872 876 880 882 884 887 888 890 890 891 893 895 902 908 913 917 918 916 916 916 916 916 915 914 913 913 912 912 911 910 909 907 906 904 902 900 898
848 853 855 858 862 866 871 875 879 881 883 886 886 888 888 890 891 892 895 906 910 915 917 918 916 916 916 916 915 915 914 913 913 912 912 911 909 908 907 905 903 901 898
845 850 854 857 861 864 869 874 878 880 881 883 884 885 887 888 890 890 893 899 910 911 914 916 917 916 916 916 915 915 914 914 913 913 912 910 910 908 907 905 903 901 899
844 847 852 856 859 863 867 871 875 877 879 881 882 883 886 888 890 891 892 895 897 907 911 914 915 916 915 915 914 914 915 914 913 913 912 911 910 908 907 906 903 901 900
841 844 848 854 858 861 865 869 873 875 877 879 880 882 884 887 890 891 892 894 894 896 905 907 909 911 914 914 914 914 914 914 914 913 913 912 911 909 908 907 905 902 901
837 841 846 851 856 859 863 866 870 873 874 876 879 881 883 885 888 890 890 892 892 893 899 906 908 910 912 913 913 914 914 914 914 914 913 912 911 910 909 908 906 904 902
833 838 844 850 853 857 861 863 867 870 872 874 876 879 882 884 887 889 890 891 892 893 895 900 906 908 911 912 913 913 912 913 913 912 912 912 912 911 910 908 907 904 902
832 837 842 846 851 855 858 861 865 868 870 872 874 877 880 883 885 887 888 890 891 892 895 898 902 906 908 910 912 912 910 911 911 912 912 912 911 910 909 908 906 905 903
829 834 839 844 848 853 856 858 863 867 869 872 874 876 878 881 883 884 887 889 891 892 896 899 901 904 906 908 909 910 911 910 910 910 911 910 909 908 908 907 906 905 903
826 831 836 842 847 850 853 856 860 864 867 870 873 875 877 880 882 884 885 888 889 891 894 897 899 901 903 904 905 907 908 909 909 909 908 907 906 906 906 905 905 904 903
824 829 834 838 843 846 851 854 858 861 865 868 869 872 874 878 880 882 884 888 889 890 892 894 895 896 898 900 903 904 906 907 908 906 906 905 904 904 904 903 903 902 901
821 826 830 835 840 843 848 851 856 859 863 865 867 870 872 876 879 880 882 886 888 889 890 890 891 892 894 896 899 901 902 903 903 904 904 903 903 902 901 901 901 900 899
816 821 826 832 836 841 845 848 852 855 861 863 864 867 870 873 875 877 880 883 885 887 888 889 890 890 891 893 895 897 899 901 901 901 901 900 899 898 898 897 897 898 897
812 817 822 827 832 837 842 845 849 853 857 860 862 865 868 870 872 874 876 879 881 883 885 887 888 888 890 891 892 894 896 898 898 898 898 897 896 894 893 891 892 893 893
809 814 819 822 827 833 838 841 844 849 854 857 859 861 864 867 869 871 873 875 877 879 881 883 885 886 887 888 889 891 892 894 896 896 894 895 893 893 890 889 889 891 890